Zurück zum Katalog

STARLINK-32744

AktivKommunikationVLEO
NORAD 62509·PAYLOAD·🇺🇸 United States

Gestartet Jan 6, 2025 von Cape Canaveral Space Force Station

Loading…

Nächste Überflüge (nächste 24 Stunden)

TLE

AktuellSource: CelesTrak SupGP

Epoche: Sep 14, 2026, 22:30 UTC

1 62509C 25003Y   26257.93798611  .00009631  00000+0  34886-3 0  2575
2 62509  43.0005 300.5014 0001574 265.5539   3.1953 15.27570083    11

Verfolge STARLINK-32744 in Echtzeit mit AllMySat

Download on the App Store